STARLINK-11112, 60115

Orbit data source: Space-Track

STARLINK-11112, 60115 is a payload satellite owned by SpaceX/Seattle (US) in LEO that was launched on Mon, 24 Jun 2024 UTC via an FALCON 9 launch vehicle from the Air Force Western Test Range (AFWTR). Payload-class satellites include a variety of spacecraft equipped with specific instruments for various scientific and technological missions. These include communications satellites like Starlink; space stations such as the ISS; scientific satellites like the Hubble; Earth observation satellites from companies like Planet Labs, Umbra, and HawkEye 360; GPS; miniature CubeSats for education and research; and military/defense satellites.

Loading next visibility...
Identifier
60115, 2024-118C
Orbit
LEO
Last TLE update
7 hours ago
Origin
Manufacturer
SpaceX/Seattle
Mission
Operational Commercial Communications
Bus & Motor
STARLINK V2M, Unknown motor
Mass
730 kg wet, ~700 kg dry
Launch date (UTC)
2024-06-24 (1 year ago)
Launch vehicle
FALCON 9
Launch site
Air Force Western Test Range (AFWTR)
Object type
Payload
Rocket body
Debris
Shape & HBR
Box + 2 Pan, 29 m
Radar Cross Section
36.964 m², Large (>1 m²)

Expand to show TLE details & history

TLE from 7 hours ago
0 STARLINK-11112
1 60115U 24118C   25183.93445589  .00000121  00000-0  58555-5 0  9992
2 60115  53.1587  12.6686 0000725  80.1155 279.9945 15.69706456 58767
Epoch: 2025-07-02T22:25Z
TLE epoch observation values (Epoch: 2025-07-02T22:25:36.988Z)
Latitude
-0.00002°
Longitude
115.05603°
Altitude
360.567 km
Speed
7.694 km/s
True Right ascension
00h 50m 40s
True Declination
0° 00' 00"
Sunlit
Object was in daylight at epoch
Visualization orbit readout
Latitude
42.67854°
Longitude
-109.69675°
Altitude
363.527 km
Speed
7.697 km/s
Apparent Right ascension
07h 21m 28s
Apparent Declination
3° 30' 14"
Sunlit
Object is in daylight
Visualization observer readout
Local Sidereal Time
16:48:55
Azimuth
311.778° NW
Elevation
-34.26°
Doppler factor
1
Orbital elements
Apogee altitude
360.486 km
Perigee altitude
359.509 km
Semi-major axis
6,738.135 km
Eccentricity
0.00007
Inclination
53.1587°
RAAN
12.6686°
Arg. of periapsis
80.1155°
True anomaly
Unknown
Mean anomaly
279.9945°
Eccentric anomaly
Unknown
Mean motion
3.92404 °/min
Orbital period
91.74 mins
BSTAR
0.0000058555
Loading maneuver chart data...
Loading SW <> Apogee altitude chart data...
Loading historical data...
Loading historical data...
Loading historical data...
Loading historical data...
Loading historical data...
Loading historical data...
Loading historical data...

STARLINK-11112 Visibility forecast

Observer location: undefined°, undefined°

Span
Click to sort rows by Start time (UTC) header in descending order
Start Az.
Max El. time (UTC)
Max El. Az.
Max El.
End time (UTC)
End Az.
5 mins2025-07-03 15:25:28.887Z232.418° WSW2025-07-03 15:27:28.887Z249.124° W42.7°2025-07-03 15:30:28.887Z48.243° ENE
|